Location: Frankfurt+am+Main
(50.1100°N, 8.4815°E)
Time: 09:21:19
(UTC+01:00)

ISS - Pass Details

Date: 17 November 2017
Orbit: 402 x 407 km, 51.6° (Epoch: 19 November)

Event Time Altitude Azimuth Distance (km) Brightness Sun altitude
Exits shadow 04:48:26 11° 137° (SE) 1,409 -0.6 -27.6°
Drops below altitude 10° 04:48:28 11° 137° (SE) 1,417 -0.6 -27.6°
Sets 04:50:40 0° 129° (SE) 2,307 0.7 -27.3°
